GW5579 Weather Reports


time (UTC)temp
C
wind
direction
speed
KPH
gust
KPH
rain 1hr
cm
rain 24hr
cm
rain mn
cm
humidity
%
barometer
mb
20260508115549 7 128 1.6 9.7 0.79 1.32 1.32 97 1019.3
20260508115045 7 12 4.8 4.8 0.61 1.24 1.24 97 1019.3
20260508114542 7 46 6.4 9.7 0.36 1.17 1.17 97 1019.3
20260508114039 7 350 3.2 4.8 0.30 1.14 1.14 97 1019.4
20260508113536 7 56 3.2 6.4 0.30 1.12 1.12 97 1019.3
20260508113034 7 145 1.6 4.8 0.30 1.09 1.09 97 1019.2
20260508112530 7 12 4.8 12.9 0.43 1.07 1.07 97 1019.3
20260508112027 7 106 3.2 4.8 0.48 1.04 1.04 97 1019.2
20260508111524 7 17 8.0 12.9 0.48 0.99 0.99 97 1019.2
20260508111021 7 141 1.6 3.2 0.43 0.97 0.97 97 1019.2
20260508110519 7 110 3.2 11.3 0.30 0.91 0.91 97 1019.1
20260508110014 7 339 11.3 12.9 0.48 0.89 0.89 97 1019.2
20260508105510 7 26 6.4 9.7 0.30 0.84 0.84 97 1019.2
20260508105008 7 342 6.4 6.4 0.30 0.81 0.81 97 1019.2
20260508104505 7 99 3.2 9.7 0.30 0.79 0.79 97 1019.2
20260508104001 7 15 11.3 14.5 0.48 0.76 0.76 97 1019.0
20260508103458 7 90 4.8 12.9 0.48 0.71 0.71 97 1019.2
20260508102955 7 91 4.8 9.7 0.43 0.69 0.69 97 1019.2
20260508102454 7 353 6.4 9.7 0.43 0.64 0.64 97 1019.2
20260508101950 7 355 4.8 6.4 0.66 0.61 0.61 97 1019.1
20260508101448 7 225 1.6 3.2 0.66 0.56 0.56 97 1019.2
20260508100945 7 283 4.8 14.5 0.61 0.51 0.51 97 1019.1
20260508100444 7 348 3.2 4.8 0.48 0.43 0.43 97 1019.1
20260508095939 7 34 3.2 6.4 0.48 0.38 0.38 96 1019.2
20260508095437 7 74 4.8 6.4 0.30 0.36 0.36 96 1019.1
20260508094934 7 21 6.4 6.4 0.13 0.30 0.30 96 1019.2
20260508094430 7 40 3.2 6.4 0.43 0.30 0.30 96 1018.9
20260508093927 7 88 1.6 9.7 0.48 0.28 0.28 96 1019.1
20260508093425 8 66 3.2 6.4 0.36 0.23 0.23 96 1018.9
20260508092922 8 351 1.6 4.8 0.48 0.20 0.20 96 1019.0
20260508092420 8 346 1.6 4.8 0.30 0.15 0.15 96 1019.0
20260508091918 8 331 4.8 6.4 0.30 0.13 0.13 95 1019.0
20260508091415 8 151 0.0 4.8 0.30 0.10 0.10 95 1019.0
20260508090912 8 154 0.0 4.8 0.13 0.08 0.08 95 1018.9
20260508090411 8 88 1.6 3.2 0.18 0.05 0.05 94 1018.9
20260508085911 8 69 1.6 3.2 0.18 0.05 0.05 94 1018.9
20260508085409 8 151 0.0 4.8 0.00 0.03 0.03 93 1018.7
20260508084905 8 169 0.0 3.2 0.13 0.03 0.03 94 1018.9
20260508084401 8 143 0.0 4.8 0.13 0.03 0.03 93 1018.7
20260508083859 8 64 4.8 4.8 0.00 0.00 0.00 92 1018.9
20260508083357 8 325 3.2 4.8 0.00 0.00 0.00 92 1018.8
20260508082856 8 110 3.2 4.8 0.00 0.00 0.00 91 1018.6
20260508082354 8 140 4.8 6.4 0.00 0.00 0.00 91 1018.8
20260508081851 8 78 3.2 6.4 0.00 0.00 0.00 91 1018.9
20260508081348 8 16 4.8 9.7 0.00 0.00 0.00 91 1018.8
20260508080845 8 173 1.6 6.4 0.00 0.00 0.00 91 1018.6
20260508080343 8 342 6.4 6.4 0.00 0.00 0.00 90 1018.8
20260508075839 8 126 1.6 14.5 0.00 0.00 0.00 90 1018.6
20260508075336 8 90 4.8 11.3 0.00 0.00 0.00 89 1018.6
20260508074834 8 78 6.4 9.7 0.00 0.00 0.00 89 1018.6
20260508074331 8 138 3.2 4.8 0.00 0.00 0.00 89 1018.4
20260508073828 8 81 3.2 3.2 0.00 0.00 0.00 89 1018.5
20260508073326 8 75 11.3 16.1 0.00 0.00 0.00 89 1018.2
20260508072822 8 157 0.0 4.8 0.00 0.00 0.00 90 1018.3
20260508072319 8 21 4.8 16.1 0.00 0.00 0.00 90 1018.3
20260508071816 8 3 3.2 4.8 0.00 0.00 0.00 90 1018.3
20260508071315 8 104 1.6 4.8 0.00 0.00 0.00 91 1018.1
20260508070811 8 289 3.2 11.3 0.00 0.00 0.00 91 1018.1
20260508070310 8 118 8.0 12.9 0.00 0.00 0.00 91 1018.2
20260508065807 8 224 4.8 12.9 0.00 0.00 0.00 91 1018.2
20260508065307 8 11 4.8 16.1 0.00 0.00 0.00 91 1018.3
20260508064803 8 161 1.6 9.7 0.00 0.00 0.00 91 1018.1
20260508064300 8 217 3.2 6.4 0.00 0.00 0.00 91 1018.0
20260508063757 8 122 3.2 6.4 0.00 0.00 0.00 91 1017.8
20260508063255 8 258 8.0 11.3 0.00 0.00 0.00 92 1017.8
20260508062752 8 168 1.6 6.4 0.00 0.00 0.00 92 1017.8
20260508062250 8 245 3.2 6.4 0.00 0.00 0.00 92 1017.7
20260508061746 8 95 1.6 6.4 0.00 0.00 0.00 93 1018.0
20260508061243 8 169 4.8 9.7 0.00 0.00 0.00 93 1017.7
20260508060740 8 145 1.6 3.2 0.00 0.00 0.00 94 1017.5
20260508060238 8 19 9.7 11.3 0.00 0.00 0.00 94 1017.7
20260508055733 8 118 3.2 4.8 0.00 0.00 0.00 95 1017.5
20260508055230 7 117 1.6 4.8 0.00 0.00 0.00 95 1017.5
20260508054727 7 348 3.2 4.8 0.00 0.00 0.00 95 1017.5
20260508054225 7 51 4.8 9.7 0.00 0.00 0.00 95 1017.4
20260508053722 7 331 12.9 12.9 0.00 0.00 0.00 95 1017.3
20260508053219 7 63 4.8 6.4 0.00 0.00 0.00 96 1017.3
20260508052716 7 354 3.2 6.4 0.00 0.00 0.00 96 1017.5
20260508052213 7 332 3.2 4.8 0.00 0.00 0.00 96 1017.7
20260508051709 7 117 1.6 11.3 0.00 0.00 0.00 96 1017.6
20260508051205 7 27 11.3 14.5 0.00 0.00 0.00 96 1017.6
20260508050701 7 96 1.6 6.4 0.00 0.00 0.00 96 1017.7
20260508050159 7 143 0.0 6.4 0.00 0.00 0.00 96 1017.5
20260508045654 7 18 4.8 9.7 0.00 0.00 0.00 96 1017.5
20260508045153 7 17 6.4 9.7 0.00 0.00 0.00 96 1017.4
20260508044649 7 35 8.0 11.3 0.00 0.00 0.00 96 1017.4
20260508044145 7 9 11.3 14.5 0.00 0.00 0.00 96 1017.4
20260508043642 7 176 1.6 9.7 0.00 0.00 0.00 96 1017.4
20260508043140 7 17 6.4 11.3 0.00 0.00 0.00 97 1017.4
20260508042636 7 336 6.4 9.7 0.00 0.00 0.00 97 1017.3
20260508042134 7 357 3.2 9.7 0.00 0.00 0.00 97 1017.3
20260508041630 7 191 3.2 12.9 0.00 0.00 0.00 97 1017.4
20260508041127 7 349 6.4 9.7 0.00 0.00 0.00 97 1017.4
20260508040623 7 27 3.2 4.8 0.00 0.00 0.00 97 1017.2
20260508040121 7 336 8.0 11.3 0.00 0.00 0.00 97 1017.0
20260508035618 7 111 3.2 11.3 0.00 0.00 0.00 97 1017.1
20260508035115 7 29 3.2 4.8 0.00 0.00 0.00 97 1017.2
20260508034612 7 341 6.4 12.9 0.00 0.00 0.00 97 1017.0
20260508034109 7 331 6.4 9.7 0.00 0.00 0.00 97 1017.2
20260508033606 7 117 0.0 1.6 0.00 0.00 0.00 97 1017.0
20260508033104 7 5 4.8 11.3 0.00 0.00 0.00 97 1016.8
20260508032601 7 328 8.0 12.9 0.00 0.00 0.00 97 1017.0
20260508032058 7 45 6.4 6.4 0.00 0.00 0.00 97 1017.0
20260508031555 7 162 1.6 6.4 0.00 0.00 0.00 97 1016.9
20260508031051 7 24 6.4 11.3 0.00 0.00 0.00 97 1017.0
20260508030547 7 145 3.2 6.4 0.00 0.00 0.00 97 1016.9
20260508030046 7 4 8.0 11.3 0.00 0.00 0.00 97 1016.9
20260508025542 7 81 3.2 3.2 0.00 0.00 0.00 97 1016.7
20260508025039 7 24 20.9 22.5 0.00 0.00 0.00 97 1016.9
20260508024535 7 63 4.8 14.5 0.00 0.00 0.00 97 1016.9
20260508024032 7 72 3.2 4.8 0.00 0.00 0.00 97 1016.8
20260508023528 7 305 4.8 11.3 0.00 0.00 0.00 97 1016.8
20260508023026 7 30 6.4 9.7 0.00 0.00 0.00 97 1017.0
20260508022522 7 350 4.8 11.3 0.00 0.00 0.00 97 1016.9
20260508022019 7 45 6.4 12.9 0.00 0.00 0.00 97 1016.8
20260508021515 8 130 3.2 12.9 0.00 0.00 0.00 97 1016.9
20260508021011 8 179 1.6 3.2 0.00 0.00 0.00 97 1016.8
20260508020509 7 32 3.2 6.4 0.00 0.00 0.00 97 1016.9
20260508020006 7 148 0.0 11.3 0.00 0.00 0.00 97 1016.8
20260508015503 8 337 3.2 4.8 0.00 0.00 0.00 97 1016.8
20260508015000 8 80 6.4 6.4 0.00 0.00 0.00 97 1016.8
20260508014456 8 332 3.2 4.8 0.00 0.00 0.00 97 1016.9
20260508013953 8 127 1.6 6.4 0.00 0.00 0.00 97 1016.9
20260508013448 8 31 8.0 11.3 0.00 0.00 0.00 97 1016.8
20260508012946 8 65 3.2 11.3 0.00 0.00 0.00 97 1016.9
20260508012443 8 5 4.8 4.8 0.00 0.00 0.00 97 1016.9
20260508011940 8 194 1.6 6.4 0.00 0.00 0.00 97 1016.7
20260508011438 8 161 1.6 3.2 0.00 0.00 0.00 97 1016.8
20260508010936 8 69 3.2 4.8 0.00 0.00 0.00 97 1016.9
20260508010432 8 27 3.2 4.8 0.00 0.00 0.00 97 1016.8
20260508005930 8 59 3.2 4.8 0.00 0.00 0.00 97 1016.6
20260508005426 8 6 9.7 14.5 0.00 0.00 0.00 97 1016.8
20260508004923 8 25 3.2 11.3 0.00 0.00 0.00 97 1016.8
20260508004419 8 142 3.2 4.8 0.00 0.00 0.00 97 1016.8
20260508003916 8 25 9.7 12.9 0.00 0.00 0.00 97 1016.8
20260508003413 8 88 3.2 9.7 0.00 0.00 0.00 97 1016.9
20260508002910 8 121 3.2 6.4 0.00 0.00 0.00 97 1016.8
20260508002406 8 24 4.8 9.7 0.00 0.00 0.00 97 1016.5
20260508001902 8 122 3.2 3.2 0.00 0.00 0.00 97 1016.9
20260508001358 8 92 6.4 11.3 0.00 0.00 0.00 97 1016.9
20260508000855 8 29 1.6 4.8 0.00 0.00 0.00 97 1017.0
20260508000351 8 7 1.6 6.4 0.00 0.00 0.00 97 1017.0
20260507235848 8 35 6.4 6.4 0.00 0.00 0.00 97 1017.0
20260507235346 8 53 4.8 4.8 0.00 0.00 0.00 97 1016.9
20260507234843 8 46 6.4 9.7 0.00 0.00 0.00 97 1016.7
20260507234339 8 350 3.2 4.8 0.00 0.00 0.00 96 1016.7
20260507233835 8 5 8.0 9.7 0.00 0.00 0.00 96 1016.8
20260507233333 8 341 4.8 6.4 0.00 0.00 0.00 96 1016.7
20260507232831 8 24 6.4 12.9 0.00 0.00 0.00 96 1016.7
20260507232327 8 108 3.2 9.7 0.00 0.00 0.00 96 1016.8
20260507231825 8 42 8.0 11.3 0.00 0.00 0.00 96 1017.1
20260507231321 8 107 3.2 4.8 0.00 0.00 0.00 96 1016.8
20260507230818 8 333 3.2 6.4 0.00 0.00 0.00 95 1016.9
20260507230315 8 7 3.2 6.4 0.00 0.00 0.00 95 1016.9
20260507225815 8 348 3.2 4.8 0.00 0.00 0.00 95 1016.8
20260507225312 8 64 4.8 4.8 0.00 0.00 0.00 95 1016.9
20260507224807 8 52 1.6 9.7 0.00 0.00 0.00 94 1016.7
20260507224304 8 54 4.8 11.3 0.00 0.00 0.00 94 1016.8
20260507223800 8 17 3.2 4.8 0.00 0.00 0.00 94 1016.7
20260507223257 8 105 1.6 6.4 0.00 0.00 0.00 93 1016.5
20260507222754 8 46 6.4 9.7 0.00 0.00 0.00 92 1016.7
20260507222250 8 92 1.6 3.2 0.00 0.00 0.00 92 1016.6
20260507221748 8 152 1.6 3.2 0.00 0.00 0.00 92 1016.5
20260507221243 8 53 6.4 6.4 0.00 0.00 0.00 91 1016.6
20260507220740 8 12 6.4 9.7 0.00 0.00 0.00 92 1016.5
20260507220239 8 14 4.8 12.9 0.00 0.00 0.00 92 1016.4
20260507215734 8 339 6.4 9.7 0.00 0.00 0.00 92 1016.4
20260507215232 8 348 8.0 11.3 0.00 0.00 0.00 92 1016.3
20260507214729 8 136 1.6 11.3 0.00 0.00 0.00 92 1016.5
20260507214226 8 24 3.2 6.4 0.00 0.00 0.00 93 1016.5
20260507213721 8 46 6.4 6.4 0.00 0.00 0.00 93 1016.6
20260507213219 8 329 6.4 6.4 0.00 0.00 0.00 93 1016.5
20260507212715 8 149 3.2 4.8 0.00 0.00 0.00 93 1016.5
20260507212212 8 38 8.0 11.3 0.00 0.00 0.00 93 1016.5
20260507211708 8 70 4.8 6.4 0.00 0.00 0.00 93 1016.4
20260507211204 8 320 6.4 12.9 0.00 0.00 0.00 93 1016.4
20260507210702 8 339 9.7 14.5 0.00 0.00 0.00 92 1016.3
20260507210158 8 323 3.2 4.8 0.00 0.00 0.00 93 1016.3
20260507205654 8 57 4.8 11.3 0.00 0.03 0.03 93 1016.3
20260507205151 8 55 3.2 6.4 0.00 0.03 0.03 93 1016.1
20260507204647 8 292 4.8 6.4 0.00 0.03 0.03 93 1016.2
20260507204145 8 58 4.8 9.7 0.00 0.03 0.03 93 1016.3
20260507203643 8 353 6.4 6.4 0.00 0.03 0.03 93 1016.2
20260507203140 8 353 4.8 6.4 0.00 0.03 0.03 93 1016.3
20260507202636 8 145 1.6 4.8 0.00 0.03 0.03 93 1016.0
20260507202132 8 356 3.2 9.7 0.00 0.03 0.03 93 1016.1
20260507201627 8 60 3.2 9.7 0.00 0.03 0.03 93 1016.2
20260507201125 8 352 8.0 11.3 0.00 0.03 0.03 93 1016.0
20260507200620 8 59 6.4 9.7 0.00 0.03 0.03 93 1016.0
20260507200117 8 124 0.0 3.2 0.00 0.03 0.03 94 1015.9
20260507195614 8 343 11.3 12.9 0.00 0.03 0.03 94 1016.0
20260507195111 8 116 3.2 9.7 0.00 0.03 0.03 94 1015.8
20260507194608 8 74 3.2 6.4 0.00 0.03 0.03 94 1015.7
20260507194103 8 51 3.2 6.4 0.00 0.03 0.03 94 1015.9
20260507193600 8 322 6.4 9.7 0.00 0.03 0.03 94 1015.7
20260507193057 8 332 3.2 4.8 0.00 0.03 0.03 94 1015.6
20260507192553 8 343 8.0 11.3 0.00 0.03 0.03 94 1015.6
20260507192051 8 32 6.4 12.9 0.00 0.03 0.03 94 1015.7
20260507191546 8 199 1.6 11.3 0.00 0.03 0.03 94 1015.5
20260507191043 8 299 3.2 11.3 0.00 0.03 0.03 94 1015.6
20260507190540 8 71 4.8 9.7 0.00 0.03 0.03 94 1015.3
20260507190039 8 17 9.7 12.9 0.00 0.03 0.03 94 1015.4
20260507185537 8 37 3.2 4.8 0.00 0.03 0.03 94 1015.2
20260507185033 8 155 1.6 4.8 0.00 0.03 0.03 94 1015.2
20260507184532 8 332 6.4 11.3 0.00 0.03 0.03 94 1015.2
20260507184029 8 3 6.4 9.7 0.00 0.03 0.03 94 1015.2
20260507183525 8 66 6.4 9.7 0.00 0.03 0.03 94 1015.4
20260507183022 8 339 4.8 6.4 0.00 0.03 0.03 95 1015.4
20260507182518 8 247 1.6 3.2 0.00 0.03 0.03 95 1015.2
20260507182014 8 247 0.0 6.4 0.00 0.03 0.03 95 1015.0
20260507181512 8 147 1.6 4.8 0.00 0.03 0.03 95 1015.1
20260507181008 8 351 6.4 11.3 0.00 0.03 0.03 95 1015.0
20260507180504 8 10 4.8 9.7 0.00 0.03 0.03 95 1015.0
20260507180000 8 35 6.4 11.3 0.00 0.03 0.03 95 1014.9
20260507175457 8 90 1.6 11.3 0.00 0.03 0.03 95 1015.0
20260507174955 8 92 1.6 4.8 0.00 0.03 0.03 95 1015.1
20260507174452 8 117 3.2 12.9 0.00 0.03 0.03 95 1015.0
20260507173949 8 151 1.6 4.8 0.00 0.03 0.03 95 1015.0
20260507173446 8 167 1.6 6.4 0.00 0.03 0.03 95 1015.0
20260507172943 8 62 3.2 4.8 0.00 0.03 0.03 95 1014.9
20260507172439 8 85 3.2 9.7 0.00 0.03 0.03 95 1014.8
20260507171936 8 65 4.8 14.5 0.00 0.03 0.03 94 1014.9
20260507171432 8 83 6.4 6.4 0.00 0.03 0.03 94 1014.7
20260507170930 8 335 6.4 6.4 0.00 0.03 0.03 94 1014.7
20260507170426 8 129 3.2 11.3 0.00 0.03 0.03 94 1014.6
20260507165922 8 170 1.6 14.5 0.00 0.03 0.03 93 1014.6
20260507165418 8 29 9.7 12.9 0.00 0.03 0.03 93 1014.6
20260507164914 8 310 4.8 6.4 0.00 0.03 0.03 93 1014.6
20260507164411 8 78 1.6 4.8 0.00 0.03 0.03 93 1014.5
20260507163909 8 138 3.2 6.4 0.00 0.03 0.03 93 1014.5
20260507163406 8 19 6.4 9.7 0.00 0.03 0.03 92 1014.2
20260507162902 8 17 9.7 14.5 0.00 0.03 0.03 92 1014.1
20260507162357 8 40 8.0 12.9 0.00 0.03 0.03 91 1014.0
20260507161855 9 78 3.2 9.7 0.00 0.03 0.03 91 1014.3
20260507161351 9 24 14.5 16.1 0.00 0.03 0.03 90 1014.2
20260507160848 9 341 3.2 9.7 0.00 0.03 0.03 90 1013.8
20260507160343 9 39 6.4 11.3 0.00 0.03 0.03 90 1013.9
20260507155840 9 61 9.7 14.5 0.00 0.03 0.03 89 1013.9
20260507155336 9 54 6.4 9.7 0.00 0.03 0.03 90 1014.0
20260507154833 9 323 6.4 14.5 0.00 0.03 0.03 90 1014.0
20260507154330 9 0 14.5 16.1 0.00 0.03 0.03 91 1014.0
20260507153827 9 80 6.4 12.9 0.00 0.03 0.03 90 1014.0
20260507153323 9 11 11.3 12.9 0.00 0.03 0.03 91 1014.0
20260507152820 10 69 3.2 12.9 0.00 0.03 0.03 91 1014.0
20260507152317 10 11 3.2 6.4 0.00 0.03 0.03 91 1013.8
20260507151813 10 46 8.0 12.9 0.00 0.03 0.03 90 1014.0
20260507151309 10 11 9.7 14.5 0.00 0.03 0.03 90 1014.0
20260507150806 10 48 4.8 9.7 0.00 0.03 0.03 89 1013.7
20260507150302 10 49 8.0 9.7 0.00 0.03 0.03 89 1013.8
20260507145759 10 355 9.7 12.9 0.00 0.03 0.03 89 1013.6
20260507145255 10 349 9.7 16.1 0.00 0.03 0.03 88 1013.6
20260507144752 10 20 8.0 12.9 0.00 0.03 0.03 88 1013.8
20260507144250 10 4 8.0 12.9 0.00 0.03 0.03 88 1013.6
20260507143746 10 3 4.8 12.9 0.00 0.03 0.03 87 1013.4
20260507143244 10 334 4.8 14.5 0.00 0.03 0.03 87 1013.5
20260507142739 10 8 9.7 17.7 0.00 0.03 0.03 87 1013.5
20260507142236 10 35 9.7 12.9 0.00 0.03 0.03 87 1013.3
20260507141732 10 96 3.2 9.7 0.00 0.03 0.03 86 1013.4
20260507141230 10 349 6.4 17.7 0.00 0.03 0.03 86 1013.3
20260507140725 10 179 1.6 6.4 0.00 0.03 0.03 87 1013.3
20260507140223 10 32 6.4 12.9 0.00 0.03 0.03 86 1013.2
20260507135720 10 29 14.5 16.1 0.00 0.03 0.03 86 1013.1
20260507135218 10 27 4.8 11.3 0.00 0.03 0.03 86 1012.8
20260507134713 11 307 9.7 14.5 0.00 0.03 0.03 85 1013.1
20260507134210 11 327 9.7 11.3 0.00 0.03 0.03 84 1013.1
20260507133706 12 32 8.0 11.3 0.00 0.03 0.03 82 1013.0
20260507133203 11 43 8.0 14.5 0.00 0.03 0.03 82 1012.8
20260507132700 12 8 12.9 16.1 0.00 0.03 0.03 81 1012.5
20260507132157 12 50 8.0 16.1 0.00 0.03 0.03 81 1012.5
20260507131654 12 108 3.2 14.5 0.00 0.03 0.03 82 1012.3
20260507131151 12 14 9.7 17.7 0.00 0.03 0.03 81 1012.2
20260507130647 12 27 9.7 24.1 0.00 0.03 0.03 81 1012.0
20260507130145 12 347 14.5 20.9 0.00 0.03 0.03 82 1012.0
20260507125644 12 10 11.3 20.9 0.00 0.03 0.03 81 1011.9
20260507125141 13 30 9.7 14.5 0.00 0.03 0.03 78 1012.0
20260507124637 14 50 8.0 12.9 0.00 0.03 0.03 77 1011.9
20260507124135 13 347 8.0 9.7 0.00 0.03 0.03 80 1012.1
20260507123633 13 37 11.3 16.1 0.00 0.03 0.03 80 1011.9
20260507123130 13 1 9.7 20.9 0.00 0.03 0.03 81 1012.1
20260507122625 13 28 6.4 16.1 0.00 0.03 0.03 80 1012.1
20260507122121 14 347 4.8 4.8 0.00 0.03 0.03 79 1012.0
20260507121618 14 17 11.3 12.9 0.00 0.03 0.03 79 1012.0
20260507121114 14 300 4.8 14.5 0.00 0.03 0.03 79 1012.0
20260507120610 14 199 3.2 11.3 0.00 0.03 0.03 81 1011.9
20260507120107 15 35 6.4 16.1 0.00 0.03 0.03 78 1011.7